Time,TemperatureF,DewpointF,PressureIn,WindDirection,WindDirectionDegrees,WindSpeedMPH,WindSpeedGustMPH,Humidity,HourlyPrecipIn,Conditions,Clouds,dailyrainin,SoftwareType,DateUTC
2013-02-27 00:06:00,34.1,32.0,29.98,NE,52,0.0,-999.0,92,-99.99,,,0.00,weatherlink.com 1.10,2013-02-27 05:06:00,
2013-02-27 00:21:00,34.1,32.0,29.98,ENE,69,4.0,-999.0,92,-99.99,,,0.00,weatherlink.com 1.10,2013-02-27 05:21:00,
2013-02-27 00:37:00,34.2,32.0,29.96,ENE,77,3.0,-999.0,92,-99.99,,,0.02,weatherlink.com 1.10,2013-02-27 05:37:00,
2013-02-27 00:52:00,34.1,32.0,29.96,NE,55,5.0,-999.0,93,-99.99,,,0.05,weatherlink.com 1.10,2013-02-27 05:52:00,
2013-02-27 01:07:00,34.3,33.0,29.96,NE,46,8.0,-999.0,93,-99.99,,,0.08,weatherlink.com 1.10,2013-02-27 06:07:00,
2013-02-27 01:22:00,34.6,33.0,29.96,NNE,27,4.0,-999.0,93,-99.99,,,0.12,weatherlink.com 1.10,2013-02-27 06:22:00,
2013-02-27 01:37:00,34.6,33.0,29.95,NNE,32,5.0,-999.0,93,-99.99,,,0.16,weatherlink.com 1.10,2013-02-27 06:37:00,
2013-02-27 01:52:00,34.5,33.0,29.93,NE,43,4.0,-999.0,94,-99.99,,,0.20,weatherlink.com 1.10,2013-02-27 06:52:00,
2013-02-27 02:07:00,34.7,33.0,29.91,NE,36,2.0,-999.0,94,-99.99,,,0.22,weatherlink.com 1.10,2013-02-27 07:07:00,
2013-02-27 02:22:00,34.8,33.0,29.90,NNE,33,0.0,-999.0,94,-99.99,,,0.22,weatherlink.com 1.10,2013-02-27 07:22:00,
2013-02-27 02:37:00,34.8,33.0,29.88,NNE,17,4.0,-999.0,94,-99.99,,,0.24,weatherlink.com 1.10,2013-02-27 07:37:00,
2013-02-27 02:52:00,34.8,33.0,29.87,ENE,59,4.0,-999.0,94,-99.99,,,0.26,weatherlink.com 1.10,2013-02-27 07:52:00,
2013-02-27 03:08:00,35.0,34.0,29.85,ENE,57,1.0,-999.0,94,-99.99,,,0.27,weatherlink.com 1.10,2013-02-27 08:08:00,
2013-02-27 03:23:00,35.0,34.0,29.85,ENE,59,5.0,-999.0,94,-99.99,,,0.28,weatherlink.com 1.10,2013-02-27 08:23:00,
2013-02-27 03:38:00,35.2,34.0,29.84,NE,38,2.0,-999.0,94,-99.99,,,0.28,weatherlink.com 1.10,2013-02-27 08:38:00,
2013-02-27 03:53:00,35.5,34.0,29.83,NE,35,0.0,-999.0,95,-99.99,,,0.30,weatherlink.com 1.10,2013-02-27 08:53:00,
2013-02-27 04:08:00,35.6,34.0,29.81,North,360,2.0,-999.0,95,-99.99,,,0.31,weatherlink.com 1.10,2013-02-27 09:08:00,
2013-02-27 04:23:00,36.0,35.0,29.80,ENE,59,6.0,-999.0,95,-99.99,,,0.32,weatherlink.com 1.10,2013-02-27 09:23:00,
2013-02-27 04:38:00,36.3,35.0,29.80,NNE,19,3.0,-999.0,95,-99.99,,,0.34,weatherlink.com 1.10,2013-02-27 09:38:00,
2013-02-27 04:53:00,36.8,36.0,29.79,NNE,32,2.0,-999.0,95,-99.99,,,0.36,weatherlink.com 1.10,2013-02-27 09:53:00,
2013-02-27 05:08:00,36.9,36.0,29.78,NE,44,5.0,-999.0,95,-99.99,,,0.38,weatherlink.com 1.10,2013-02-27 10:08:00,
2013-02-27 05:23:00,37.1,36.0,29.77,NE,46,0.0,-999.0,95,-99.99,,,0.39,weatherlink.com 1.10,2013-02-27 10:23:00,
2013-02-27 05:39:00,37.7,36.0,29.76,ENE,69,5.0,-999.0,95,-99.99,,,0.40,weatherlink.com 1.10,2013-02-27 10:39:00,
2013-02-27 05:54:00,37.9,37.0,29.75,NE,36,1.0,-999.0,95,-99.99,,,0.42,weatherlink.com 1.10,2013-02-27 10:54:00,
2013-02-27 06:09:00,38.1,37.0,29.74,NNE,22,4.0,-999.0,95,-99.99,,,0.42,weatherlink.com 1.10,2013-02-27 11:09:00,
2013-02-27 06:24:00,38.3,37.0,29.74,ENE,74,3.0,-999.0,95,-99.99,,,0.43,weatherlink.com 1.10,2013-02-27 11:24:00,
2013-02-27 06:39:00,38.4,37.0,29.73,NE,35,4.0,-999.0,95,-99.99,,,0.46,weatherlink.com 1.10,2013-02-27 11:39:00,
2013-02-27 06:54:00,38.7,37.0,29.72,ENE,77,2.0,-999.0,95,-99.99,,,0.51,weatherlink.com 1.10,2013-02-27 11:54:00,
2013-02-27 07:09:00,38.9,38.0,29.72,NNW,344,0.0,-999.0,95,-99.99,,,0.53,weatherlink.com 1.10,2013-02-27 12:09:00,
2013-02-27 07:24:00,39.0,38.0,29.72,NE,50,0.0,-999.0,95,-99.99,,,0.54,weatherlink.com 1.10,2013-02-27 12:24:00,
2013-02-27 07:39:00,39.3,38.0,29.70,NE,49,4.0,-999.0,95,-99.99,,,0.55,weatherlink.com 1.10,2013-02-27 12:39:00,
2013-02-27 07:54:00,39.9,39.0,29.70,NNW,344,4.0,-999.0,95,-99.99,,,0.56,weatherlink.com 1.10,2013-02-27 12:54:00,
2013-02-27 08:10:00,40.5,39.0,29.69,NE,44,3.0,-999.0,95,-99.99,,,0.58,weatherlink.com 1.10,2013-02-27 13:10:00,
2013-02-27 08:25:00,41.0,41.0,29.68,East,79,2.0,-999.0,100,-99.99,,,0.58,weatherlink.com 1.10,2013-02-27 13:25:00,
2013-02-27 08:40:00,41.3,40.0,29.66,NE,44,5.0,-999.0,95,-99.99,,,0.60,weatherlink.com 1.10,2013-02-27 13:40:00,
2013-02-27 08:55:00,41.6,40.0,29.65,ENE,63,0.0,-999.0,95,-99.99,,,0.61,weatherlink.com 1.10,2013-02-27 13:55:00,
2013-02-27 09:10:00,42.0,41.0,29.64,North,5,2.0,-999.0,95,-99.99,,,0.62,weatherlink.com 1.10,2013-02-27 14:10:00,
2013-02-27 09:25:00,42.2,41.0,29.63,East,88,3.0,-999.0,94,-99.99,,,0.63,weatherlink.com 1.10,2013-02-27 14:25:00,
2013-02-27 09:40:00,42.5,41.0,29.63,NNE,23,0.0,-999.0,94,-99.99,,,0.64,weatherlink.com 1.10,2013-02-27 14:40:00,
2013-02-27 09:55:00,42.9,41.0,29.62,North,5,5.0,-999.0,94,-99.99,,,0.65,weatherlink.com 1.10,2013-02-27 14:55:00,
2013-02-27 10:10:00,43.0,41.0,29.61,East,88,4.0,-999.0,94,-99.99,,,0.66,weatherlink.com 1.10,2013-02-27 15:10:00,
2013-02-27 10:26:00,43.4,42.0,29.61,North,9,1.0,-999.0,94,-99.99,,,0.67,weatherlink.com 1.10,2013-02-27 15:26:00,
2013-02-27 10:41:00,43.7,42.0,29.61,NE,42,8.0,-999.0,94,-99.99,,,0.68,weatherlink.com 1.10,2013-02-27 15:41:00,
2013-02-27 10:56:00,43.8,42.0,29.61,NNW,331,4.0,-999.0,94,-99.99,,,0.72,weatherlink.com 1.10,2013-02-27 15:56:00,
2013-02-27 11:11:00,44.2,43.0,29.61,NE,49,3.0,-999.0,94,-99.99,,,0.73,weatherlink.com 1.10,2013-02-27 16:11:00,
2013-02-27 11:26:00,44.5,43.0,29.59,NE,35,9.0,-999.0,94,-99.99,,,0.74,weatherlink.com 1.10,2013-02-27 16:26:00,
2013-02-27 11:41:00,44.6,43.0,29.58,SE,145,5.0,-999.0,93,-99.99,,,0.74,weatherlink.com 1.10,2013-02-27 16:41:00,
2013-02-27 11:56:00,44.6,43.0,29.57,NNE,23,0.0,-999.0,93,-99.99,,,0.74,weatherlink.com 1.10,2013-02-27 16:56:00,
2013-02-27 12:11:00,44.5,43.0,29.57,NE,53,3.0,-999.0,93,-99.99,,,0.75,weatherlink.com 1.10,2013-02-27 17:11:00,
2013-02-27 12:26:00,44.6,43.0,29.55,NNW,348,1.0,-999.0,93,-99.99,,,0.75,weatherlink.com 1.10,2013-02-27 17:26:00,
2013-02-27 12:41:00,44.7,43.0,29.55,NW,323,4.0,-999.0,93,-99.99,,,0.75,weatherlink.com 1.10,2013-02-27 17:41:00,
2013-02-27 12:57:00,44.5,43.0,29.54,NNE,28,2.0,-999.0,93,-99.99,,,0.76,weatherlink.com 1.10,2013-02-27 17:57:00,
2013-02-27 13:12:00,44.6,43.0,29.52,NNE,17,6.0,-999.0,93,-99.99,,,0.76,weatherlink.com 1.10,2013-02-27 18:12:00,
2013-02-27 13:27:00,44.5,43.0,29.51,SSE,158,2.0,-999.0,93,-99.99,,,0.76,weatherlink.com 1.10,2013-02-27 18:27:00,
2013-02-27 13:42:00,44.3,42.0,29.51,NNE,17,0.0,-999.0,93,-99.99,,,0.76,weatherlink.com 1.10,2013-02-27 18:42:00,
2013-02-27 13:57:00,44.1,42.0,29.53,ESE,117,5.0,-999.0,93,-99.99,,,0.76,weatherlink.com 1.10,2013-02-27 18:57:00,
2013-02-27 14:12:00,43.8,42.0,29.54,North,350,0.0,-999.0,93,-99.99,,,0.76,weatherlink.com 1.10,2013-02-27 19:12:00,
2013-02-27 14:27:00,43.7,42.0,29.53,NE,38,1.0,-999.0,93,-99.99,,,0.76,weatherlink.com 1.10,2013-02-27 19:27:00,
2013-02-27 14:42:00,43.6,42.0,29.54,SSE,153,1.0,-999.0,94,-99.99,,,0.76,weatherlink.com 1.10,2013-02-27 19:42:00,
2013-02-27 14:57:00,43.4,42.0,29.54,SSW,204,0.0,-999.0,94,-99.99,,,0.76,weatherlink.com 1.10,2013-02-27 19:57:00,
2013-02-27 15:12:00,43.4,42.0,29.54,WNW,288,0.0,-999.0,95,-99.99,,,0.76,weatherlink.com 1.10,2013-02-27 20:12:00,
2013-02-27 15:27:00,43.4,42.0,29.54,NE,49,0.0,-999.0,95,-99.99,,,0.76,weatherlink.com 1.10,2013-02-27 20:27:00,
2013-02-27 15:42:00,43.4,42.0,29.53,NE,39,0.0,-999.0,95,-99.99,,,0.76,weatherlink.com 1.10,2013-02-27 20:42:00,
2013-02-27 15:57:00,43.5,42.0,29.54,NW,325,0.0,-999.0,95,-99.99,,,0.76,weatherlink.com 1.10,2013-02-27 20:57:00,
2013-02-27 16:12:00,43.6,42.0,29.54,ENE,68,0.0,-999.0,95,-99.99,,,0.76,weatherlink.com 1.10,2013-02-27 21:12:00,
2013-02-27 16:28:00,43.7,42.0,29.55,ENE,78,0.0,-999.0,95,-99.99,,,0.76,weatherlink.com 1.10,2013-02-27 21:28:00,
2013-02-27 16:43:00,43.7,42.0,29.56,East,98,0.0,-999.0,95,-99.99,,,0.76,weatherlink.com 1.10,2013-02-27 21:43:00,
2013-02-27 16:58:00,43.7,42.0,29.57,East,98,0.0,-999.0,95,-99.99,,,0.76,weatherlink.com 1.10,2013-02-27 21:58:00,
2013-02-27 17:13:00,43.6,42.0,29.57,East,98,0.0,-999.0,95,-99.99,,,0.77,weatherlink.com 1.10,2013-02-27 22:13:00,
2013-02-27 17:28:00,43.4,42.0,29.58,East,98,0.0,-999.0,95,-99.99,,,0.78,weatherlink.com 1.10,2013-02-27 22:28:00,
2013-02-27 17:43:00,43.3,42.0,29.59,East,98,0.0,-999.0,96,-99.99,,,0.78,weatherlink.com 1.10,2013-02-27 22:43:00,
2013-02-27 17:58:00,43.1,42.0,29.59,East,98,0.0,-999.0,96,-99.99,,,0.78,weatherlink.com 1.10,2013-02-27 22:58:00,
2013-02-27 18:13:00,43.1,42.0,29.60,East,98,0.0,-999.0,96,-99.99,,,0.78,weatherlink.com 1.10,2013-02-27 23:13:00,
2013-02-27 18:28:00,43.0,42.0,29.61,East,98,0.0,-999.0,96,-99.99,,,0.78,weatherlink.com 1.10,2013-02-27 23:28:00,
2013-02-27 18:43:00,42.9,42.0,29.62,West,270,0.0,-999.0,96,-99.99,,,0.80,weatherlink.com 1.10,2013-02-27 23:43:00,
2013-02-27 18:58:00,42.5,42.0,29.62,West,269,2.0,-999.0,96,-99.99,,,0.80,weatherlink.com 1.10,2013-02-27 23:58:00,
2013-02-27 19:13:00,42.2,41.0,29.62,SW,222,0.0,-999.0,96,-99.99,,,0.80,weatherlink.com 1.10,2013-02-28 00:13:00,
2013-02-27 19:28:00,41.8,41.0,29.62,SW,220,0.0,-999.0,95,-99.99,,,0.80,weatherlink.com 1.10,2013-02-28 00:28:00,
2013-02-27 19:43:00,41.5,40.0,29.62,SSW,198,0.0,-999.0,95,-99.99,,,0.80,weatherlink.com 1.10,2013-02-28 00:43:00,
2013-02-27 19:59:00,41.3,40.0,29.62,SSW,198,0.0,-999.0,95,-99.99,,,0.80,weatherlink.com 1.10,2013-02-28 00:59:00,
2013-02-27 20:14:00,41.0,40.0,29.63,SW,236,0.0,-999.0,95,-99.99,,,0.80,weatherlink.com 1.10,2013-02-28 01:14:00,
2013-02-27 20:29:00,40.8,40.0,29.64,SW,236,0.0,-999.0,95,-99.99,,,0.80,weatherlink.com 1.10,2013-02-28 01:29:00,
2013-02-27 20:44:00,40.4,39.0,29.64,SW,227,0.0,-999.0,94,-99.99,,,0.80,weatherlink.com 1.10,2013-02-28 01:44:00,
2013-02-27 20:59:00,39.9,38.0,29.65,SW,227,0.0,-999.0,94,-99.99,,,0.80,weatherlink.com 1.10,2013-02-28 01:59:00,
2013-02-27 21:14:00,39.7,38.0,29.65,SW,227,0.0,-999.0,94,-99.99,,,0.80,weatherlink.com 1.10,2013-02-28 02:14:00,
2013-02-27 21:29:00,39.5,38.0,29.66,SW,227,0.0,-999.0,94,-99.99,,,0.80,weatherlink.com 1.10,2013-02-28 02:29:00,
2013-02-27 21:44:00,39.2,38.0,29.66,SW,227,0.0,-999.0,94,-99.99,,,0.80,weatherlink.com 1.10,2013-02-28 02:44:00,
2013-02-27 21:59:00,38.8,37.0,29.65,SW,227,0.0,-999.0,93,-99.99,,,0.80,weatherlink.com 1.10,2013-02-28 02:59:00,
2013-02-27 22:14:00,38.6,37.0,29.65,SW,227,0.0,-999.0,94,-99.99,,,0.80,weatherlink.com 1.10,2013-02-28 03:14:00,